Location: Laverne
(36.7100°N, 99.8930°W)
Time: 12:42:21
(UTC-05:00)

Daily predictions for brighter satellites

Satellite Brightness Start Highest point End
(mag) Time Altitude Azimuth Time Altitude Azimuth Time Altitude Azimuth
NOSS 2-2 (E) 3.4 21:10:41 10° SSW 21:14:36 64° ESE 21:18:58 10° NE
Cosmos 1743 4.2 21:13:24 10° NNE 21:16:27 22° ENE 21:19:30 10° SE
Resurs 01 Rocket 1.8 21:12:58 10° S 21:17:24 77° W 21:21:51 10° NNW
ASTRO E2 3.4 21:14:18 10° WSW 21:18:02 38° S 21:21:45 10° ESE
Helios 1B rocket 2.9 21:14:18 10° NNE 21:18:11 39° E 21:22:04 10° S
Cosmos 1437 3.3 21:16:38 10° SSE 21:19:37 37° E 21:22:38 10° NNE
CZ-2D R/B 3.4 21:16:07 10° S 21:19:56 78° WSW 21:23:45 10° NNW
COSMOS 2455 2.9 21:14:07 10° NNW 21:20:08 70° ENE 21:26:06 10° SE
Cosmos 1538 Rocket 4.3 21:17:11 10° SSW 21:22:19 75° WNW 21:27:31 10° NNE
Meteor 1-12 Rocket 4.4 21:16:59 10° N 21:23:00 70° E 21:28:55 10° SSE
DEBRIS 3.0 21:25:02 10° SW 21:27:45 81° SE 21:35:17 10° NE
Cosmos 923 Rocket 4.1 21:25:45 10° S 21:30:56 56° ESE 21:36:07 10° NNE
Cosmos 1455 Rocket 3.0 21:28:28 10° N 21:32:50 74° E 21:37:09 10° SSE
Meteor 1-29 2.9 21:38:51 10° NNE 21:42:12 60° E 21:45:31 10° S
Cosmos 1666 3.6 21:41:02 10° NNE 21:44:20 29° ENE 21:46:39 16° SE
ERS-1 Rocket 3.8 21:41:28 13° SE 21:45:21 33° ENE 21:49:50 10° N
Cosmos 1346 3.1 21:43:22 10° S 21:46:00 44° E 21:48:41 10° NNE
Meteor 2-4 Rocket 4.0 21:44:34 10° SSE 21:49:52 47° E 21:55:22 10° NNE
Aureole 1 Rocket 2.6 21:49:32 10° S 21:52:57 46° ESE 21:55:54 10° NNE
SAR-Lupe-4 3.5 21:50:40 12° SSE 21:54:00 87° ENE 21:57:37 10° NNW
YAOGAN 6 2.8 21:53:13 18° SE 21:55:32 47° ENE 21:58:55 10° N
NOSS 2-2 (D) 4.4 21:54:03 10° SW 21:57:55 51° NW 22:02:15 10° NNE
CENTAUR R/B 3.2 21:55:19 10° NNW 22:03:23 83° ENE 22:10:10 18° SE
Cosmos 2112 Rocket 3.9 21:58:26 10° S 22:03:38 73° ESE 22:08:50 10° NNE
H-2A R/B 3.7 22:02:15 13° E 22:04:25 17° ENE 22:07:34 10° NNE
Cosmos 1656 Rocket 3.6 22:01:10 10° NNW 22:06:39 90° S 22:10:53 18° SSE
Okean 1-7 Rocket 3.7 22:07:06 17° SSE 22:10:22 53° E 22:14:45 10° NNE
SAR-Lupe-1 4.4 22:07:59 15° S 22:10:47 65° WSW 22:14:22 10° NNW
SPOT 5 3.7 22:11:37 22° ESE 22:13:16 28° ENE 22:16:59 10° N
Cosmos 405 Rocket 3.4 22:10:15 10° SSW 22:13:53 52° W 22:17:37 10° N
Cosmos 2327 Rocket 4.5 22:07:41 10° N 22:13:55 80° E 22:19:14 15° S
SL-27 R/B 2.4 22:11:59 10° SSW 22:15:38 88° ESE 22:19:18 10° NNE
Tiangong 2 1.7 22:15:42 10° W 22:18:50 56° NNW 22:21:52 11° ENE
Helios 1A 4.3 22:16:30 10° SSW 22:20:24 36° W 22:24:19 10° NNW
Terra 3.9 22:20:24 11° E 22:21:40 12° ENE 22:23:37 10° NE
Meteor 1-23 Rocket 4.1 22:16:41 12° S 22:21:53 70° E 22:27:27 10° NNE
DNEPR-1 R/B 3.6 22:19:04 10° NNW 22:23:20 70° ENE 22:25:27 31° SE
Cosmos 1943 Rocket 4.0 22:20:11 10° NW 22:24:40 25° WSW 22:29:07 10° SSW
Cosmos 1441 Rocket 3.2 22:22:11 15° SSW 22:25:13 78° W 22:28:58 10° N
Cosmos 1680 Rocket 4.2 22:21:46 10° SSW 22:26:54 57° WNW 22:32:03 10° N
ASTEX 1 3.5 22:29:03 19° S 22:32:37 75° W 22:37:32 10° N
Cosmos 2056 Rocket 4.2 22:27:54 10° N 22:32:41 37° ENE 22:34:24 29° ESE
CRYOSAT 2 4.4 22:31:04 21° S 22:34:19 79° W 22:39:11 10° N
Cosmos 1606 Rocket 4.0 22:31:02 10° N 22:35:09 42° E 22:36:00 37° ESE
MOS 1-B Rocket 3.9 22:33:11 27° SSE 22:36:24 76° ENE 22:42:38 10° N
USA 245 3.7 22:37:19 29° NE 22:37:19 29° NE 22:38:54 10° N
Meteor 1-15 Rocket 4.2 22:31:09 10° N 22:36:43 64° E 22:39:13 33° SSE
NOAA 11 4.1 22:34:52 27° SSE 22:37:55 86° ENE 22:43:23 10° NNW
ARGOS 3.2 22:36:13 32° SE 22:38:38 62° ENE 22:43:59 10° N
Cosmos 405 2.9 22:35:05 10° N 22:38:39 87° W 22:39:26 52° S
ISS -2.3 22:35:39 10° WSW 22:38:47 39° NW 22:41:54 10° NE
Cosmos 1238 Rocket 4.3 22:32:50 10° S 22:39:30 76° W 22:46:09 10° N
Cosmos 2181 Rocket 4.2 22:40:13 30° SSE 22:43:10 52° E 22:49:16 10° NNE
YAOGAN 11 4.0 22:42:17 44° SSE 22:43:34 75° ENE 22:47:53 10° N
Cosmos 1726 Rocket 3.8 22:41:31 10° N 22:45:41 46° E 22:46:13 43° ESE
COSMOS 2487 4.2 22:48:51 22° ENE 22:48:51 22° ENE 22:50:32 10° NE
Cosmos 1025 Rocket 3.5 22:47:59 20° SSW 22:50:46 56° W 22:54:58 10° N
OAO 2 Rocket 3.1 22:48:03 10° W 22:53:00 74° S 22:54:26 46° ESE
Cosmos 2082 Rocket 2.7 22:54:38 38° ESE 22:54:58 38° ESE 23:00:09 10° NE
Cosmos 2058 Rocket 3.5 22:50:50 10° N 22:55:02 43° E 22:55:16 42° E
SPOT 1/Viking Rocket 3.6 22:53:49 44° SE 22:55:17 62° ENE 23:00:23 10° N
Cosmos 2278 4.4 22:50:34 10° N 22:55:57 41° ENE 22:57:30 34° E
ASTRO E2 4.3 22:54:51 10° WSW 22:57:04 22° SW 22:57:04 22° SW
SL-24 DEB 4.1 22:59:12 55° SSE 23:00:09 78° E 23:04:48 10° N
MetOp-B 4.5 23:00:20 31° S 23:02:47 61° WSW 23:08:05 10° NNW
Cosmos 1371 Rocket 4.1 23:06:51 10° NNW 23:12:08 68° WSW 23:13:31 47° SSW
Cosmos 962 Rocket 4.4 23:06:58 10° N 23:13:15 83° W 23:15:32 42° S
Cosmos 2369 3.9 23:09:22 10° NNW 23:15:03 58° ENE 23:16:08 50° ESE
Cosmos 1437 Rocket 3.3 23:12:54 10° NNW 23:16:38 49° W 23:16:48 49° WSW
H-2A R/B 2.8 23:18:44 43° ENE 23:18:44 43° ENE 23:22:53 10° N
Cosmos 1697 Rocket 3.7 23:16:30 10° N 23:21:31 32° ENE 23:22:23 31° ENE
SL-08 RB Rocket 4.1 23:24:47 47° SW 23:25:22 51° W 23:29:44 10° NNW
Cosmos 1626 Rocket 4.3 23:30:46 43° NE 23:30:46 43° NE 23:33:55 10° NNE
SL-8 Rocket 3.9 23:25:13 10° N 23:31:30 83° E 23:32:49 58° SSE
Meteor 2-21 4.4 23:26:26 10° N 23:32:25 61° E 23:33:06 57° ESE
Meteor 1-16 4.5 23:27:57 10° N 23:33:26 83° E 23:33:58 73° SSE
Cosmos 2366 rocket 3.9 23:30:01 10° N 23:36:09 66° E 23:36:54 60° ESE
Cosmos 1833 Rocket 2.5 23:35:45 70° S 23:36:25 84° ESE 23:42:04 10° NNE
USA 267 3.4 23:30:07 10° NE 23:35:59 50° ESE 23:35:59 50° ESE
Cosmos 1656 3.6 23:32:05 10° NNW 23:37:30 63° ENE 23:37:48 62° E
IGS 5A 4.0 23:40:22 54° N 23:40:22 54° N 23:43:42 10° N
Meteor 1-4 Rocket 4.1 23:37:17 10° N 23:39:20 31° N 23:39:20 31° N
H-2A R/B 2.4 23:42:53 47° WSW 23:43:22 49° W 23:48:14 10° NNW
Landsat 7 4.0 23:43:46 64° W 23:43:46 64° W 23:48:30 10° NNW
Cosmos 1066 Rocket 4.2 23:43:25 60° SW 23:44:19 72° W 23:49:55 10° N
Meteor 1-21 4.3 23:54:27 63° ENE 23:54:27 63° ENE 23:59:45 10° NNE
Tiangong 2 4.1 23:53:13 10° WNW 23:54:07 16° NW 23:54:07 16° NW
